sat.trackr.live / text

‹ back to catalog

STARLINK-36135

NORAD 66986 · 2025-288AD

PAYLOAD ACTIVE UNKNOWN

§ Identity

Operator
Country
US
Launch date
2025-12-08
Launch site
AFETR
Launch vehicle
Mass (kg)
RCS (m²)

Purposes: comms

External: N2YO · Heavens-Above · Gunter

§ Orbital elements

Epoch: 2026-05-25T04:05:18.544128Z

Period
94.27 min
Inclination
42.9994°
Eccentricity
0.0001488
Mean motion
15.27588635 rev/d
Perigee alt
482.0 km
Apogee alt
484.0 km
Semi-major
6,861.2 km
B*
5.1675e-4
RAAN
311.5680°
Arg perigee
272.0502°
Mean anomaly
88.0179°
Rev number
2,698

§ Raw data

STARLINK-361351 66986U 25288AD  26145.17035352  .00013988  00000+0  51675-3 0  99992 66986  42.9994 311.5680 0001488 272.0502  88.0179 15.27588635 26985

JSON: /api/v1/satellites/66986 · /tle

For live sub-satellite position, see the globe view (requires WebGL).

§ Visibility from observer

Set your observer location to see the next 7 days of passes ≥ 10°. The values pass through the URL so the page stays shareable.

No JS? Fill the form by hand. The geolocation button needs JavaScript.